This demonstration page uses our WeatherBlox Daily Observations layout. Learn more.

Left ArrowRight Arrow

31.84235, -102.49876

Hourly Observations for May 1, 2022

Temp ( °F °C ) Dew Point ( °F °C ) Humidity (%) Winds ( mph kmh ) Pressure ( in mb ) Visibility ( mi km ) Precip ( " mm )
12:53 am 00:53 Clear 68 20 28 -2.2 22 22 ESE 14 22 29.85 1011 10 16 0.00 0.00
1:53 am 01:53 Clear 66 18.9 28 -2.2 24 24 ESE 14 22 29.85 1011 10 16 0.00 0.00
2:53 am 02:53 Clear 65 18.3 30 -1.1 27 27 ESE 14 22 29.84 1010 10 16 0.00 0.00
3:53 am 03:53 Mostly Cloudy 66 18.9 31 -0.6 27 27 SE 18 30 29.83 1010 10 16 0.00 0.00
4:26 am 04:26 Cloudy 66 18.9 32 0 28 28 ESE 18 30 29.85 1011 10 16 0.00 0.00
4:53 am 04:53 Mostly Cloudy 66 18.9 32 0 28 28 SE 18 30 29.83 1010 10 16 0.00 0.00
5:53 am 05:53 Cloudy 65 18.3 34 1.1 32 32 ESE 18 30 29.82 1010 10 16 0.00 0.00
6:53 am 06:53 Cloudy 65 18.3 35 1.7 33 33 SE 13 20 29.82 1010 10 16 0.00 0.00
7:50 am 07:50 Mostly Cloudy 66 19 39 4 37 37 SE 16 26 29.85 1011 10 16 0.00 0.00
7:53 am 07:53 Mostly Cloudy 66 18.9 39 3.9 37 37 SE 17 28 29.84 1010 10 16 0.00 0.00
8:53 am 08:53 Cloudy 68 20 46 7.8 45 45 SE 17 28 29.86 1011 10 16 0.00 0.00
9:03 am 09:03 Mostly Cloudy 69 20.6 49 9.4 49 49 SE 17 28 29.84 1011 10 16 0.00 0.00
9:31 am 09:31 Mostly Cloudy 71 21.7 50 10 47 47 SE 20 31 29.84 1011 10 16 0.00 0.00
9:53 am 09:53 Mostly Cloudy 72 22.2 51 10.6 48 48 SE 18 30 29.85 1011 10 16 0.00 0.00
10:53 am 10:53 Cloudy 73 22.8 53 11.7 50 50 SE 17 28 29.85 1011 10 16 0.00 0.00
11:27 am 11:27 Partly Cloudy 76 24.4 55 12.8 48 48 SE 22 35 29.79 1009 10 16 0.00 0.00
11:53 am 11:53 Mostly Cloudy 78 25.6 60 15.6 54 54 SSE 21 33 29.83 1010 10 16 0.00 0.00
12:53 pm 12:53 Cloudy 80 26.7 60 15.6 51 51 S 20 31 29.81 1010 10 16 0.00 0.00
1:53 pm 13:53 Mostly Cloudy 83 28.3 59 15 44 44 S 22 35 29.78 1008 10 16 0.00 0.00
2:53 pm 14:53 Partly Cloudy 85 29.4 57 13.9 39 39 SSE 22 35 29.76 1008 10 16 0.00 0.00
3:53 pm 15:53 Mostly Cloudy 85 29.4 57 13.9 39 39 SSE 22 35 29.72 1006 10 16 0.00 0.00
4:53 pm 16:53 Partly Cloudy 87 30.6 56 13.3 35 35 S 20 31 29.65 1004 10 16 0.00 0.00
5:53 pm 17:53 Sunny 81 27.2 59 15 47 47 SSE 23 37 29.65 1004 9 14 0.00 0.00
6:53 pm 18:53 Sunny 79 26.1 61 16.1 54 54 SSE 20 31 29.66 1004 7 11 0.00 0.00
7:53 pm 19:53 Partly Cloudy 78 25.6 62 16.7 58 58 SSE 23 37 29.66 1004 8 13 0.00 0.00
8:11 pm 20:11 Mostly Cloudy with Nearby Thunderstorms 75 23.9 65 18.3 71 71 SSE 25 41 29.64 1004 3 4 0.05 1.27
8:18 pm 20:18 Mostly Cloudy with Nearby Thunderstorms 75 23.9 65 18.3 71 71 SSE 28 44 29.63 1003 7 11 0.05 1.27
8:32 pm 20:32 Mostly Clear 75 23.9 64 17.8 69 69 SSE 23 37 29.63 1003 7 11 0.05 1.27
8:53 pm 20:53 Clear 75 23.9 64 17.8 69 69 SSE 23 37 29.65 1004 9 14 0.05 1.27
9:53 pm 21:53 Mostly Clear 72 22.2 61 16.1 68 68 S 24 39 29.69 1005 9 14 0.00 0.00
10:53 pm 22:53 Clear 71 21.7 59 15 66 66 S 21 33 29.68 1005 10 16 0.00 0.00
11:53 pm 23:53 Clear 71 21.7 61 16.1 71 71 S 21 33 29.68 1005 9 14 0.00 0.00

Powered by AerisWeather